Quilmes, Argentina
Current Conditions -  °F | °C
As of 9:00 PM on Monday 20 Oct 2014 (Local Time) from SABE Reporting Station
Clear Clear  
Wind Chill: 66°   Ceiling: Unl
Heat Index: 66°   Visibility: 6mi
Dew Point: 52°   Wind: 6mph
Humidity: 60%   Direction: 90°E
Pressure: 30.12"   Gusts: NA
Location:  34.73°S, 58.27°W
Report Text: SABE 210000Z 09005KT CAVOK 19/11 Q1020
Loading
Personal Weather Stations






























Interactive Weather Map
Tropical Storm Tracking
New forecast layout! Learn more

10-Day Weather Forecast

Advertisements
Track Severe Weather on mobile